This is the latest recevied weather packets stored in our database for station/object AK6MW. If no packets are shown the sender has not sent any weather packets the latest 10 day(s).
| Time | Temp. | Humidity | Pressure | Rain* | Wind** | Luminosity | Snow |
|---|---|---|---|---|---|---|---|
| 1777233542 | 8.33° C | 76% | 1013.3 hPa | - | - | - | - |
| 1777226922 | 5.56° C | 99% | 1013.4 hPa | - | - | - | - |
| 1777222723 | 4.44° C | 99% | 1012.5 hPa | - | - | - | - |
| 1777220922 | 4.44° C | 99% | 1012.4 hPa | - | - | - | - |
| 1777216722 | 3.33° C | 99% | 1011.7 hPa | - | - | - | - |
| 1777216123 | 2.78° C | 99% | 1011.6 hPa | - | - | - | - |
| 1777211943 | 2.78° C | 99% | 1011.1 hPa | - | - | - | - |
| 1777210721 | 2.78° C | 99% | 1010.8 hPa | - | - | - | - |
| 1777208922 | 3.33° C | 99% | 1010.6 hPa | - | - | - | - |
| 1777208323 | 3.33° C | 99% | 1010.5 hPa | - | - | - | - |
| 1777207164 | 3.33° C | 99% | 1010.1 hPa | - | - | - | - |
| 1777205923 | 3.33° C | 99% | 1010.1 hPa | - | - | - | - |
| 1777201721 | 3.33° C | 99% | 1010.1 hPa | - | - | - | - |
| 1777201122 | 3.33° C | 99% | 1010.1 hPa | - | - | - | - |
| 1777195745 | 3.33° C | 99% | 1009.7 hPa | - | - | - | - |
| 1777194521 | 3.33° C | 99% | 1009.9 hPa | - | - | - | - |
| 1777191522 | 3.33° C | 99% | 1010.1 hPa | - | - | - | - |
| 1777188522 | 3.89° C | 99% | 1010.1 hPa | - | - | - | - |
| 1777181325 | 4.44° C | 99% | 1010.1 hPa | - | - | - | - |
| 1777179523 | 4.44° C | 99% | 1010.3 hPa | - | - | - | - |
| 1777177725 | 4.44° C | 99% | 1009.9 hPa | - | - | - | - |
| 1777174726 | 4.44° C | 99% | 1009.9 hPa | - | - | - | - |
| 1777166942 | 6.11° C | 98% | 1009.6 hPa | - | - | - | - |
| 1777166321 | 6.11° C | 98% | 1009.6 hPa | - | - | - | - |
| 1777165723 | 6.11° C | 97% | 1009.8 hPa | - | - | - | - |
* Rain since midnight (hover to see other rain measurements)
** Current wind speed in m/s (hover to see current wind gust speed)